Regional Weather Roundup
Issued by NWS

Home | Current Version | Previous Version | Text Only | Print | Product List | Glossary On
Versions: 1 2 3 4 5 6 7 8 9 10 11 12 13 14 15 16 17 18 19 20 21 22 23 24 25 26 27 28 29 30 31 32 33 34 35 36 37 38 39 40 41 42 43 44 45 46 47 48 49 50
000
ASHW40 PHFO 041243
RWRHI

WEATHER ROUNDUP FOR HAWAII
NATIONAL WEATHER SERVICE HONOLULU HI
200 AM HST WED MAR 04 2015

THIS IS AN AUTOMATED REPORT THAT HAS NOT BEEN QUALITY CONTROLLED.

NOTE..."FAIR" INDICATES FEW OR NO CLOUDS BELOW 12,000 FEET WITH NO
SIGNIFICANT WEATHER AND/OR OBSTRUCTIONS TO VISIBILITY.

* - THESE SITES REPORT LIMITED FIELDS

HIZ001>004-041300-
KAUAI-NIIHAU-

CITY           SKY/WX    TMP DP  RH WIND       PRES   REMARKS
LIHUE APT      CLOUDY    71  62  73 N13       30.05F
PORT ALLEN*      N/A     72 N/A N/A SE6         N/A
POIPU*         NOT AVBL
PRINCEVILLE*     N/A     70 N/A N/A MISG        N/A
KOKOLE POINT*  NOT AVBL
MOLOAA DAIRY*  NOT AVBL
WAIMEA HTS*    NOT AVBL
PUU OPAE*        N/A     64  52  63 NE6G14      N/A
PUU LUA*       NOT AVBL
MAKAHA RIDGE*  NOT AVBL
$$

HIZ005>011-041300-
OAHU-

CITY           SKY/WX    TMP DP  RH WIND       PRES   REMARKS
HONOLULU       CLOUDY    74  63  68 N8        30.00F
KALAELOA       CLOUDY    72  62  71 N9        30.01R
KANEOHE MCB    MOCLDY    73  65  75 N12       30.01F
WHEELER FIELD  FAIR      68  64  88 NW10      30.02S
BELLOWS*         N/A    N/A N/A N/A N14G21      N/A
KAHUKU*          N/A    N/A N/A N/A NE3         N/A
WHEELER*       NOT AVBL
WAIANAE HARBOR NOT AVBL
DILLINGHAM*      N/A     70  66  88 MISG        N/A
KAHUKU TRN*      N/A     68  63  83 NE6G14      N/A
KAWAILOA*        N/A     66  63  88 N7G18       N/A
KII*             N/A     73  66  78 NE13        N/A
MAKUA RANGE*     N/A     72  64  78 E14G26      N/A
OAHU FOREST NW   N/A    N/A N/A N/A CALM        N/A
SCHOFIELD BRK*   N/A     75  72  88 MISG        N/A
SCHOFIELD S*   NOT AVBL
WAIANAE VLY*     N/A     70  59  68 N10G26      N/A
KUAOKALA*        N/A     68  61  77 CALM        N/A
HONOULIUULI*   NOT AVBL
MOKUOLOE IS*     N/A    N/A N/A N/A MISG        N/A
PALEHUA*         N/A     73  63  68 CALM        N/A
WAIAWA PHB*    NOT AVBL
$$

HIZ012>013-041300-
MOLOKAI-

CITY           SKY/WX    TMP DP  RH WIND       PRES   REMARKS
MOLOKAI AIRPT  LGT RAIN  68  68 100 N9        30.01S
KALAUPAPA      NOT AVBL
MAKAPULAPAI*     N/A     72  68  88 NE15G22     N/A
MOLOKAI 1*       N/A     63  63 100 E3G15       N/A
PUU ALII*        N/A     59  59 100 E3G18       N/A
$$

HIZ016-041300-
KAHOOLAWE-

CITY           SKY/WX    TMP DP  RH WIND       PRES   REMARKS
KAHOOLAWE*       N/A     68 N/A N/A NE13G20     N/A
HAKIOAWA*        N/A     68  68 100 MISG      30.38F
HONOKANAIA*      N/A     73  67  81 VRB14G24  29.98F
KANELOA*         N/A     73  70  88 MISG      29.22
KEALIALALO*    NOT AVBL
LUA MAKIKA*    NOT AVBL
$$

HIZ014>015-041300-
LANAI-

CITY           SKY/WX    TMP DP  RH WIND       PRES   REMARKS
LANAI CITY     FAIR      68  68 100 NE18G30   30.02F
LANAI 1*         N/A     66  66 100 NE21G35     N/A
$$

HIZ017>028-041300-
MAUI-

CITY           SKY/WX    TMP DP  RH WIND       PRES   REMARKS
KAHULUI        HVY RAIN  73  70  88 N16       29.97F FOG
KAPALUA-W MAUI NOT AVBL
HANA AIRPORT   HVY RAIN  70  68  94 S6        30.00F VSB 1/2
HANA*            N/A     72 N/A N/A SE1         N/A
HALEAKALA SUMM   N/A     43  32  65 NW3G20      N/A
MAALAEA BAY*   NOT AVBL
HALEAKALA*     NOT AVBL
KAUPO GAP*       N/A     73  72  94 VRB2G13     N/A
KULA 1*          N/A     52  45  76 E2          N/A
$$

HIZ023>026-041300-
BIG ISLAND OF HAWAII COAST AND LOWER SLOPES-

CITY           SKY/WX    TMP DP  RH WIND       PRES   REMARKS
KAILUA KONA    CLOUDY    77  66  68 SE6       29.93F
HILO           HVY RAIN  70  69  97 W10       29.98F FOG
HONOKAA*       NOT AVBL
KAWAIHAE MWT*    N/A     79 N/A N/A VRB3        N/A
KAWAIHAE*        N/A     79 N/A N/A W1          N/A
SOUTH POINT*     N/A     70 N/A N/A E14G20      N/A
UPOLU AIRPORT*   N/A    N/A N/A N/A E12G20      N/A
KAMUELA*       MOSUNNY   63  63 100 E6        30.03F
HAKALAU*         N/A     53  52  95 SW5         N/A
KALOKO-HONOKO*   N/A     75  64  69 E2          N/A
PALI 2*          N/A     64  63  94 N1          N/A
KEALAKOMO*       N/A     73  70  88 E7G18       N/A
KAUPULEHU*       N/A     68  57  68 SE7         N/A
KAPAPALA*        N/A     67  66  96 CALM        N/A
LOWER KAHUKU*    N/A    N/A N/A N/A N1G7        N/A
PUHE CS*         N/A     77  66  69 VRB1        N/A
PUHO CS*         N/A     75  62  64 NE3         N/A
PTA KEAMUKU*     N/A     63  57  82 CALM        N/A
WAIKOLOA*        N/A     70  59  68 E3          N/A
$$

HIZ027>028-041300-
BIG ISLAND OF HAWAII INTERIOR AND SUMMMITS-

CITY           SKY/WX    TMP DP  RH WIND       PRES   REMARKS
BRADSHAW FIELD LGT RAIN  52  50  93 S1        30.26F
MK VISITOR CEN NOT AVBL
MAUNA KEA*       N/A     28  28 100 W2          N/A
MAUNA LOA*       N/A     37  32  81 MISG        N/A
MAUNA LOA 1*   NOT AVBL
PTA KIPUKA*      N/A     55  54  94 S3          N/A
PTA RANGE 17*    N/A     55  52  88 SE2G9       N/A
PTA WEST*        N/A     57  55  94 SE5         N/A
NENE CABIN*      N/A     52  43  71 VRB3        N/A
AHUMOA*          N/A     53  44  71 NE5G10      N/A
PTA PORTABLE*  NOT AVBL
PUU MALI*      NOT AVBL
$$

HIC003-041300-
NORTHWEST ISLANDS-

CITY           SKY/WX    TMP DP  RH WIND       PRES   REMARKS
MIDWAY ISLAND  CLOUDY    61  54  77 NE14      30.43F HAZE
MIDWAY NOS*    NOT AVBL
FRENCH FRIGATE NOT AVBL
$$

PHZ110>124-180-041300-
BUOY REPORTS

STATION/POSITION TIME  TEMP    WIND        PRES    WAVE   SWELL
                       AIR SEA DIR/SP/G            HT/PER HT/DIR
                 (UTC) (F)     (DEG/KT/KT) (MB)    (FT/S) (FT/D)
BUOY 51001       NOT AVBL
BUOY 51101       1200   68 71   20/ 19/ 25 1020.2F  10/ 8
BUOY 51100       1200   72 74   10/ 10/ 12 1016.1F
BUOY 51003       1200   76 78   40/ 17/ 21 1015.6F   8/ 8   5
BUOY 51004       1131   77 78   90/ 17/ 21 1012.7F  11/10   8/ 70
BARBERS PT BUOY  NOT AVBL
WAIMEA BAY BUOY  1200      77                N/A     7/11
KAILUA BAY BUOY  1200      77                N/A     7/11   3/ 20
LANAI BUOY       1200      76                N/A     3/14   2/190
BARBERS PT 2     1200      78                N/A     3/14   2/180
PAUWELA MAUI     1200      75                N/A     8/11   3/350
HILO             1200      77                N/A     9/11   5/ 30
KANEOHE BAY BUOY 1200      77                N/A     7/ 9   3/ 10
HANALEI KAUAI    NOT AVBL
KAHULUI HARBOR   1200   73 77   10/ 16/ 18 1014.8F
HONOLULU HARBOR  1200   74 77   70/  4/  9 1015.4F
KILO NALU        NOT AVBL
HILO HARBOR      1200   70 78  260/  5/  7 1014.5F
MOKUOLOE         1200   74 76   20/ 11/ 13 1016.9S
NAWILIWILI       1200   71 77  340/  8/ 11 1017.0F
WHOTS BUOY       NOT AVBL
BUOY 51028       NOT AVBL
$$

......................KEY........................................
  SKY/WX - SKY CONDITIONS/PRESENT WEATHER
  TMP    - TEMPERATURE IN FAHRENHEIT
  DWPT   - DEWPOINT IN FAHRENHEIT
  RH     - RELATIVE HUMIDITY IN PERCENT
  WIND   - DIRECTION AND SPEED /MPH FOR ISLANDS...KTS FOR BUOYS/
  PRES   - MEAN SEA LEVEL PRESSURE IN INCHES OF HG
  VSB    - VISIBILITY IN MILES
  HX     - HEAT INDEX
  WCI    - WIND CHILL INDEX
  VRB    - VARIABLE WIND DIRECTION
  N/A    - NOT AVAILABLE


USA.gov is the U.S. government's official web portal to all federal, state and local government web resources and services.